Location: ??
(34.7707°N, 135.6540°E)
Time: 17:04:24
(UTC+00:00)

Resurs 1-4 Rocket - Pass Details

Date: 09 April 2020
Orbit: 799 x 814 km, 98.6° (Epoch: 06 June)

Event Time Altitude Azimuth Distance (km) Brightness Sun altitude
Rises 17:41:23 0° 355° (N) 3,322 5.7 -32.6°
Reaches altitude 10° 17:44:17 10° 339° (NNW) 2,385 4.7 -32.1°
Enters shadow 17:45:04 13° 332° (NNW) 2,183 4.4 -32.0°
